Regional Weather Roundup
Issued by NWS Grand Forks, ND

Home | Current Version | Previous Version | Graphics & Text | Print | Product List | Glossary On
Versions: 1 2 3 4 5 6 7 8 9 10 11 12 13 14 15 16 17 18 19 20 21 22 23 24 25 26 27 28 29 30 31 32 33 34 35 36 37 38 39 40 41 42 43 44 45 46 47 48 49 50
000
ASUS43 KFGF 121431
RWRFGF
PRAIRIE TO PINES  WEATHER ROUNDUP
NATIONAL WEATHER SERVICE EASTERN NORTH DAKOTA/GRAND FORKS ND
800 AM CST FRI FEB 12 2016

 **SATELLITE DATA USED TO AUGMENT SKY COVER AT AUTOMATED STATIONS**
 *****  WEATHER ACROSS EASTERN NORTH DAKOTA  *****

CITY           SKY/WX    TMP DP  RH WIND       PRES   REMARKS
GRAND FORKS    PTCLDY    -3 -13  62 N23       30.57R WCI -27
GRAND FRKS AFB PTCLDY    -4 -15  59 N17G25    30.58R WCI -26
DEVILS LAKE    PTCLDY   -11 -16  78 N13       30.55R WCI -32
FARGO          CLEAR      0  -8  69 N17       30.54R WCI -21
WAHPETON ARPT  PTSUNNY    1  -6  71 N18G26    30.52R WCI -19
$$

 ***** WEATHER ACROSS CENTRAL AND WESTERN NORTH DAKOTA  *****

CITY           SKY/WX    TMP DP  RH WIND       PRES   REMARKS
BISMARCK       CLEAR      5  -3  69 N9        30.54R WCI  -9
MINOT          PTCLDY    -3 -12  65 NW9       30.56R WCI -19
JAMESTOWN      CLOUDY    -1  -8  72 N9        30.52R WCI -16
MINOT AFB      PTCLDY    -6 -12  73 NW2       30.56R
GARRISON         N/A     -2  -8  76 VRB6      30.52R WCI -14
WILLISTON      PTCLDY     0  -5  79 CALM      30.54R
DICKINSON      FLURRIES   9   5  84 NE13      30.42R WCI  -7
HETTINGER      CLOUDY    18  13  80 NE10      30.42R WCI   6
$$

 *****  OTHER AIRPORT OBSERVATIONS IN OUR AREA  *****

CITY           SKY/WX    TMP DP  RH WIND       PRES   REMARKS
WALHALLA       FAIR      -8 -15  71 N14       30.63R WCI -28
GRAFTON AIRPOR FAIR      -8 -15  71 N16       30.63R WCI -30
VALLEY CITY AR FAIR      -6 -11  77 N12       30.55R WCI -24
CANDO          FAIR     -17 -20  83 NW6       30.59R WCI -31
CAVALIER APRT  FAIR      -6 -15  65 N14G22    30.62R WCI -26
GWINNER        FAIR       1  -6  71 N15       30.53R WCI -18
SHEYENNE NWR     N/A     -3 -11  69 N7        29.95S WCI -17
ROLLA          PTSUNNY  -18 -24  76 N10       30.53R HAZE    WCI -39
 ***** THE ABOVE OBSERVATIONS ARE NON NWS ARE NOT QUALITY
       CONTROLLED AND MAY MIS-REPORT RAIN FOR SNOW...
$$

  *****  WEATHER ACROSS NORTHERN MINNESOTA  *****

CITY           SKY/WX    TMP DP  RH WIND       PRES   REMARKS
FLAG ISLAND    CLEAR    -15 -20  76 NW18      30.46R WCI -41
WARROAD        CLOUDY   -13 -18  77 W8        30.48R WCI -30
ROSEAU         CLOUDY   -15 -20  76 NW9       30.50R WCI -33
HALLOCK        CLOUDY    -9 -17  70 N13       30.59R WCI -30
THF RVR FALLS  CLEAR     -8 N/A N/A N16       30.51R WCI -30
BAUDETTE       CLEAR    -13 -20  71 NW16      30.41R WCI -37
WASKISH        CLEAR     -9 -17  70 NW8       30.42R WCI -26
CROOKSTON      CLEAR     -6 -11  77 N17       30.57R WCI -28
STEPHEN NDAWN    N/A     -9 -15  77 N14         N/A  WCI -31
GREENBUSH NDAW   N/A    -13 -18  77 NW10        N/A  WCI -32
$$
  *****  WEATHER ACROSS CENTRAL AND WEST MINNESOTA  *****

CITY           SKY/WX    TMP DP  RH WIND       PRES   REMARKS
FOSSTON        MOCLDY    -9 -17  70 N15       30.47R WCI -31
BEMIDJI        PTCLDY    -9 -15  75 NW15G22   30.41R WCI -30
PARK RAPIDS    CLEAR     -5 -13  68 NW15G24   30.37R WCI -26
ELBOW LAKE     FAIR      -1  -7  76 N17G25    30.45R WCI -22
WADENA         CLEAR     -4  -9  77 NW14G21   30.40R WCI -24
DETROIT LAKES  PTCLDY    -4  -9  77 N16G23    30.45R WCI -25
MOORHEAD       MOCLDY    -2  -9  71 N17       30.54R WCI -24
FERGUS FALLS   CLEAR     -2  -8  78 N17G24    30.52R WCI -24
MORRIS MN      LGT SNOW   1  -6  71 N21       30.45R WCI -20
STAPLES        CLEAR     -4 -11  71 NW13G23   30.38R WCI -23
$$
  *****  WEATHER ELSEWHERE ACROSS MINNESOTA  *****

CITY           SKY/WX    TMP DP  RH WIND       PRES   REMARKS
DULUTH         PTCLDY    -4 -13  65 NW15G26   30.21R WCI -25
INTRNTL FALLS  CLOUDY   -12 -18  74 NW12      30.36R WCI -32
ELY              N/A     -9 -15  77 NW16G23   30.23R HAZE    WCI -32
CLOQUET        CLEAR     -2 -13  60 NW17G26   30.25R WCI -24
WHEATON        PTCLDY     3  -2  78 NW14G21   30.53R WCI -15
BRAINERD       PTCLDY    -2 -10  69 NW20      30.35R WCI -24
HIBBING        PTCLDY    -9 -15  75 NW22      30.27R WCI -35
ALEXANDRIA     CLEAR      0  -8  69 N20       30.39R WCI -22
SAINT CLOUD    CLEAR      2  -4  76 NW15      30.35R WCI -17
MINNEAPOLIS    CLEAR      7  -1  70 NW17G25   30.34R WCI -12
$$

  *****  WEATHER ACROSS SOUTH DAKOTA  *****

CITY           SKY/WX    TMP DP  RH WIND       PRES   REMARKS
SIOUX FALLS    CLOUDY    11   6  81 N10       30.42R WCI  -3
BROOKINGS      FLURRIES   9   4  80 N13       30.41R WCI  -7
WATERTOWN      CLOUDY     5  -2  72 N15       30.43R WCI -13
HURON          CLOUDY    12   7  80 N13       30.50R WCI  -3
SISSETON         N/A      0  -6  76 N13       30.49R WCI -18
ABERDEEN       CLOUDY    11   3  70 N14       30.51R WCI  -5
MITCHELL       CLOUDY    16  10  77 N13       30.48R WCI   2
PIERRE         CLOUDY    21  15  78 N9        30.47R WCI  11
MOBRIDGE       CLOUDY    18  12  77 N10       30.45R WCI   6
RAPID CITY     CLOUDY    29  26  89 NE8       30.35R WCI  21
$$

  *****  SOME WEATHER IN NEARBY STATES *****

CITY           SKY/WX    TMP DP  RH WIND       PRES   REMARKS
GLASGOW MT     CLOUDY    18  14  84 E17       30.43S WCI   3
GREAT FALLS MT CLOUDY    33  30  88 E7        30.21F
CHEYENNE WY    CLOUDY    34  26  72 SW3       30.28S
SCOTTSBLUFF NE CLOUDY    32  28  85 CALM      30.30R
OMAHA NE       CLOUDY    21  17  84 N13       30.40R WCI   9
DES MOINES IA  CLOUDY    20  12  71 NW12      30.34R WCI   8
DAVENPORT IA   LGT SNOW  19  13  77 NW15      30.24R WCI   5
CHICAGO IL     CLOUDY    19   9  65 W14       30.13S WCI   6
EAU CLAIRE WI  CLEAR      8  -2  63 NW15G23   30.24R WCI  -9
LA CROSSE WI   CLOUDY    15   7  70 NW17      30.24R WCI  -1
$$

  *****  SOME NATIONAL WEATHER *****

CITY           SKY/WX    TMP DP  RH WIND       PRES   REMARKS
LA GUARDIA NY  MOSUNNY   19   0  43 W8        30.27S WCI   9
RALEIGH NC     CLOUDY    27   7  42 E9        30.25F WCI  18
ATLANTA GA     PTSUNNY   42  25  50 NE7       30.13S
NEW ORLEANS LA MOSUNNY   61  56  83 SW8       30.25R
OKLAHOMA CITY  PTCLDY    32  29  88 CALM      30.28R
ALBUQUERQUE NM CLEAR     34  20  56 W6        30.40R
SALT LAKE CITY FOG       29  28  96 CALM      30.43S VSB 1
LOS ANGELES CA PTCLDY    57  39  51 E5        30.09R
BOISE ID       CLEAR     31  27  85 CALM      30.33S
SEATTLE WA     LGT RAIN  52  48  87 S6        30.09S
$$

*** WEATHER ACROSS MANITOBA...SASKATCHEWAN AND ONTARIO ***
                ***ONTARIO***

CITY           SKY/WX    TMP DP  RH WIND       PRES   REMARKS
GERALDTON      PTCLDY   -22 -31  63 NW15G22   30.09R WCI -48
THUNDER BAY    PTCLDY    -9 -20  59 NW20G30   30.22R WCI -34
SIOUX LOOKOUT  CLEAR    -20 -27  69 NW12      30.28R WCI -42
TORONTO        PTSUNNY   14   5  67 W17       29.98F WCI  -3
BIG TROUT LK   CLEAR    -27 -36  62 NW13G23   30.22R WCI -53
PICKLE LAKE    CRYSTALS -26 -33  68 NW10G17   30.18R DRFTSNOWWCI -48
DRYDEN         CLEAR    -18 -26  69 N5        30.31R WCI -31
KENORA         CLEAR    -18 -24  76 NW10G17   30.39  WCI -39
$$
                *** MANITOBA***

CITY           SKY/WX    TMP DP  RH WIND       PRES   REMARKS
BRANDON        PTCLDY   -24 -29  76 NW7       30.60R WCI -42
DAUPHIN        CLEAR    -22 -27  76 W8        30.66R WCI -41
ISLAND LAKE    CLEAR    -31 -36  75 W8        30.45R WCI -52
PILOT MOUND      N/A    -17 -22  76 NW8         N/A  WCI -34
THE PAS        CLEAR    -24 -29  76 NW8       30.69R WCI -43
THOMPSON       CLEAR    -26 -33  68 NW9       30.56R WCI -47
WINNIPEG       CLEAR    -17 -24  70 N14       30.62R WCI -40
LYNN LAKE      CLEAR    -31 -36  75 NW9       30.60F WCI -53
CHURCHILL      CRYSTALS -20 -27  69 NW23G31   30.41F VSB 3/4 WCI -50
GILLAM         CLEAR    -24 -33  62 NW13      30.43R WCI -48
$$
                ***SASKATCHEWAN***

CITY           SKY/WX    TMP DP  RH WIND       PRES   REMARKS
ESTEVAN        CLEAR     -6  -9  84 W5        30.56  WCI -17
KINDERSLEY     MOCLDY     5   0  78 E17       30.42F WCI -14
LLOYDMINSTER   MOCLDY     0  -4  85 SE17      30.43F WCI -21
PRINCE ALBERT  PTCLDY   -26 -31  75 VRB2      30.65R
REGINA         PTCLDY     0  -6  78 SE5       30.56R WCI -10
YORKTON        CLEAR    -20 -26  76 W8        30.59R WCI -39
N. BATTLEFORD  PTCLDY    -6  -9  84 E10       30.56F WCI -23
LA RONGE       CLEAR    -33 -40  68 CALM      30.69R
SASKATOON      PTCLDY    -4  -9  77 SE8       30.60S WCI -19
SWIFT CURRENT  CLOUDY     7   3  85 SE15      30.38F WCI -11
$$
NOTE: THESE ARE AUTOMATED STATIONS WITH LIMITED QUALITY CONTROL
      "FAIR" INDICATES FEW OR NO CLOUDS BELOW 12,000 FEET WITH NO
      SIGNIFICANT WEATHER AND/OR OBSTRUCTIONS TO VISIBILITY.
      SKY/WX - SKY CONDITION AND SIGNIFICANT WEATHER.
      TMP - AIR TEMPERATURE.    DP   - DEWPOINT TEMPERATURE.
      RH  - RELATIVE HUMIDITY.  PRES - PRESSURE.
      HX  - HEAT INDEX.         WCI  - WIND CHILL INDEX.
$



USA.gov is the U.S. government's official web portal to all federal, state and local government web resources and services.